Location: Molveno
(46.1500°N, 10.9667°E)
Time: 01:38:18
(UTC+00:00)

Atlas Centaur 2 - Pass Details

Date: 05 July 2020
Orbit: 459 x 1310 km, 30.4° (Epoch: 11 August)

Event Time Altitude Azimuth Distance (km) Brightness Sun altitude
Rises 20:28:38 0° 239° (WSW) 3,307 5.4 -10.9°
Reaches altitude 10° 20:31:37 10° 222° (SW) 2,534 4.6 -11.2°
Maximum altitude 20:35:55 20° 178° (S) 2,126 3.8 -11.7°
Enters shadow 20:38:51 15° 148° (SSE) 2,502 4.0 -12.0°
